TimeCST,TemperatureF,Dew PointF,Humidity,Sea Level PressureIn,VisibilityMPH,Wind Direction,Wind SpeedMPH,Gust SpeedMPH,PrecipitationIn,Events,Conditions,WindDirDegrees,DateUTC
12:35 AM,42.8,42.8,100,29.84,10.0,SSE,17.3,25.3,N/A,,Overcast,150,2012-12-15 06:35:00
12:55 AM,43.7,43.2,98,29.82,10.0,SSE,17.3,26.5,0.05,,Overcast,150,2012-12-15 06:55:00
1:55 AM,44.8,42.6,92,29.81,10.0,SSE,16.1,26.5,N/A,,Overcast,160,2012-12-15 07:55:00
1:57 AM,44.6,42.8,93,29.80,10.0,SSE,16.1,26.5,N/A,,Light Drizzle,160,2012-12-15 07:57:00
1:58 AM,44.6,42.8,93,29.80,10.0,SSE,16.1,26.5,N/A,,Light Drizzle,160,2012-12-15 07:58:00
2:06 AM,44.6,42.8,93,29.79,10.0,SSE,17.3,24.2,N/A,,Overcast,160,2012-12-15 08:06:00
2:13 AM,44.6,42.8,93,29.79,10.0,SSE,15.0,24.2,N/A,,Light Drizzle,160,2012-12-15 08:13:00
2:15 AM,44.6,42.8,93,29.79,10.0,SSE,12.7,24.2,N/A,,Light Drizzle,160,2012-12-15 08:15:00
2:22 AM,44.6,42.8,93,29.79,10.0,SSE,16.1,-,N/A,,Overcast,160,2012-12-15 08:22:00
2:44 AM,44.6,42.8,93,29.79,9.0,SSE,12.7,21.9,N/A,Rain,Light Rain,160,2012-12-15 08:44:00
2:52 AM,44.6,44.6,100,29.79,6.0,SSE,16.1,20.7,N/A,Rain,Light Rain,160,2012-12-15 08:52:00
2:54 AM,44.6,44.6,100,29.78,7.0,South,15.0,20.7,N/A,Rain,Light Rain,170,2012-12-15 08:54:00
2:55 AM,45.0,43.9,96,29.78,8.0,SSE,15.0,23.0,0.03,Rain,Light Rain,160,2012-12-15 08:55:00
2:57 AM,44.6,44.6,100,29.78,10.0,SSE,12.7,23.0,N/A,Rain,Light Rain,160,2012-12-15 08:57:00
3:03 AM,44.6,44.6,100,29.78,10.0,SSE,16.1,23.0,N/A,,Overcast,160,2012-12-15 09:03:00
3:45 AM,44.6,44.6,100,29.77,10.0,SSE,13.8,19.6,N/A,,Light Drizzle,160,2012-12-15 09:45:00
3:46 AM,44.6,44.6,100,29.78,10.0,South,12.7,19.6,N/A,,Light Drizzle,170,2012-12-15 09:46:00
3:55 AM,45.7,44.1,94,29.77,10.0,SSE,13.8,21.9,0.00,Rain,Light Rain,160,2012-12-15 09:55:00
3:56 AM,46.4,44.6,93,29.77,10.0,South,12.7,21.9,N/A,,Overcast,170,2012-12-15 09:56:00
4:04 AM,46.4,44.6,93,29.76,10.0,SSE,15.0,21.9,N/A,,Overcast,160,2012-12-15 10:04:00
4:55 AM,46.9,45.7,95,29.75,10.0,South,12.7,19.6,N/A,,Overcast,180,2012-12-15 10:55:00
5:55 AM,49.1,47.5,94,29.71,10.0,South,15.0,26.5,N/A,,Overcast,180,2012-12-15 11:55:00
6:55 AM,49.8,48.4,95,29.70,10.0,South,16.1,27.6,N/A,,Overcast,180,2012-12-15 12:55:00
7:36 AM,50.0,48.2,94,29.70,10.0,South,16.1,25.3,N/A,,Overcast,180,2012-12-15 13:36:00
7:37 AM,50.0,48.2,94,29.70,10.0,South,17.3,25.3,N/A,,Overcast,190,2012-12-15 13:37:00
7:43 AM,50.0,48.2,94,29.70,10.0,South,13.8,25.3,N/A,,Overcast,180,2012-12-15 13:43:00
7:55 AM,50.9,48.4,91,29.68,10.0,South,16.1,28.8,N/A,,Overcast,180,2012-12-15 13:55:00
8:06 AM,50.0,48.2,94,29.69,10.0,South,12.7,27.6,N/A,,Mostly Cloudy,190,2012-12-15 14:06:00
8:55 AM,52.7,48.7,86,29.69,10.0,SSW,11.5,25.3,N/A,,Scattered Clouds,200,2012-12-15 14:55:00
9:08 AM,53.6,48.2,82,29.68,10.0,South,13.8,25.3,N/A,,Mostly Cloudy,190,2012-12-15 15:08:00
9:30 AM,55.4,46.4,72,29.68,10.0,SSW,16.1,32.2,N/A,,Mostly Cloudy,200,2012-12-15 15:30:00
9:47 AM,55.4,48.2,77,29.68,10.0,SSW,15.0,28.8,N/A,,Mostly Cloudy,210,2012-12-15 15:47:00
9:55 AM,55.6,47.3,74,29.68,10.0,SSW,16.1,27.6,N/A,,Mostly Cloudy,200,2012-12-15 15:55:00
10:03 AM,57.2,46.4,67,29.68,10.0,SSW,15.0,27.6,N/A,,Mostly Cloudy,200,2012-12-15 16:03:00
10:06 AM,57.2,46.4,67,29.68,10.0,SSW,18.4,27.6,N/A,,Scattered Clouds,210,2012-12-15 16:06:00
10:55 AM,58.8,46.6,64,29.67,10.0,SW,15.0,27.6,N/A,,Scattered Clouds,220,2012-12-15 16:55:00
11:55 AM,61.5,45.7,56,29.65,10.0,SW,8.1,25.3,N/A,,Partly Cloudy,220,2012-12-15 17:55:00
12:55 PM,63.5,43.3,48,29.63,10.0,SW,15.0,25.3,N/A,,Clear,220,2012-12-15 18:55:00
1:55 PM,64.0,43.2,47,29.62,10.0,WSW,11.5,21.9,N/A,,Clear,240,2012-12-15 19:55:00
2:55 PM,64.4,42.4,45,29.62,10.0,SW,9.2,16.1,N/A,,Clear,220,2012-12-15 20:55:00
3:55 PM,63.7,41.5,44,29.64,10.0,SW,8.1,23.0,N/A,,Clear,220,2012-12-15 21:55:00
4:55 PM,60.4,40.5,48,29.66,10.0,Variable,5.8,-,N/A,,Clear,0,2012-12-15 22:55:00
5:55 PM,57.0,39.7,52,29.68,10.0,WSW,5.8,-,N/A,,Clear,240,2012-12-15 23:55:00
6:55 PM,53.6,39.9,60,29.71,10.0,SW,4.6,-,N/A,,Clear,230,2012-12-16 00:55:00
7:55 PM,52.3,39.9,63,29.73,10.0,SSW,4.6,-,N/A,,Clear,210,2012-12-16 01:55:00
8:55 PM,50.9,39.2,64,29.72,10.0,SSW,6.9,-,N/A,,Clear,210,2012-12-16 02:55:00
9:55 PM,49.5,38.7,66,29.73,10.0,SW,6.9,-,N/A,,Clear,230,2012-12-16 03:55:00
10:55 PM,48.6,38.1,67,29.72,10.0,SW,5.8,-,N/A,,Clear,220,2012-12-16 04:55:00
11:55 PM,47.5,37.8,69,29.72,10.0,SW,5.8,-,N/A,,Clear,220,2012-12-16 05:55:00